Location: Alladorf
(49.9620°N, 11.3790°E)
Time: 20:38:01
(UTC+00:00)

Lacrosse 4 Rocket - Pass Details

Date: 29 November 2020
Orbit: 537 x 620 km, 68.0° (Epoch: 24 January)

Event Time Altitude Azimuth Distance (km) Brightness Sun altitude
Exits shadow 05:14:41 12° 237° (WSW) 1,844 3.6 -14.5°
Drops below altitude 10° 05:15:22 10° 229° (SW) 1,946 3.8 -14.4°
Sets 05:18:48 0° 201° (SSW) 2,859 4.9 -13.9°
